Year,Month,Day,Hour,Minute,Value (Times are PST for temperature in C)
2015,06,21,00,00,12.10
2015,06,21,00,01,12.10
2015,06,21,00,02,12.10
2015,06,21,00,03,12.10
2015,06,21,00,04,12.00
2015,06,21,00,05,12.00
2015,06,21,00,06,12.00
2015,06,21,00,07,11.90
2015,06,21,00,08,11.90
2015,06,21,00,09,11.90
2015,06,21,00,10,11.90
2015,06,21,00,11,11.90
2015,06,21,00,12,11.90
2015,06,21,00,13,11.90
2015,06,21,00,14,11.80
2015,06,21,00,15,11.80
2015,06,21,00,16,11.80
2015,06,21,00,17,11.80
2015,06,21,00,18,11.80
2015,06,21,00,19,11.80
2015,06,21,00,20,11.80
2015,06,21,00,21,11.70
2015,06,21,00,22,11.70
2015,06,21,00,23,11.70
2015,06,21,00,24,11.70
2015,06,21,00,25,11.70
2015,06,21,00,26,11.70
2015,06,21,00,27,11.60
2015,06,21,00,28,11.60
2015,06,21,00,29,11.60
2015,06,21,00,30,11.60
2015,06,21,00,31,11.60
2015,06,21,00,32,11.60
2015,06,21,00,33,11.50
2015,06,21,00,34,11.50
2015,06,21,00,35,11.50
2015,06,21,00,36,11.40
2015,06,21,00,37,11.40
2015,06,21,00,38,11.40
2015,06,21,00,39,11.40
2015,06,21,00,40,11.40
2015,06,21,00,41,11.40
2015,06,21,00,42,11.40
2015,06,21,00,43,11.40
2015,06,21,00,44,11.40
2015,06,21,00,45,11.30
2015,06,21,00,46,11.30
2015,06,21,00,47,11.30
2015,06,21,00,48,11.30
2015,06,21,00,49,11.30
2015,06,21,00,50,11.30
2015,06,21,00,51,11.30
2015,06,21,00,52,11.30
2015,06,21,00,53,11.30
2015,06,21,00,54,11.30
2015,06,21,00,55,11.30
2015,06,21,00,56,11.30
2015,06,21,00,57,11.20
2015,06,21,00,58,11.20
2015,06,21,00,59,11.20
2015,06,21,01,00,11.20
2015,06,21,01,01,11.20
2015,06,21,01,02,11.20
2015,06,21,01,03,11.20
2015,06,21,01,04,11.20
2015,06,21,01,05,11.20
2015,06,21,01,06,11.20
2015,06,21,01,07,11.20
2015,06,21,01,08,11.20
2015,06,21,01,09,11.10
2015,06,21,01,10,11.10
2015,06,21,01,11,11.10
2015,06,21,01,12,11.10
2015,06,21,01,13,11.10
2015,06,21,01,14,11.10
2015,06,21,01,15,11.00
2015,06,21,01,16,11.00
2015,06,21,01,17,11.00
2015,06,21,01,18,11.00
2015,06,21,01,19,11.00
2015,06,21,01,20,10.90
2015,06,21,01,21,10.90
2015,06,21,01,22,10.90
2015,06,21,01,23,10.90
2015,06,21,01,24,10.90
2015,06,21,01,25,10.90
2015,06,21,01,26,10.80
2015,06,21,01,27,10.80
2015,06,21,01,28,10.80
2015,06,21,01,29,10.80
2015,06,21,01,30,10.80
2015,06,21,01,31,10.80
2015,06,21,01,32,10.80
2015,06,21,01,33,10.80
2015,06,21,01,34,10.70
2015,06,21,01,35,10.70
2015,06,21,01,36,10.70
2015,06,21,01,37,10.70
2015,06,21,01,38,10.60
2015,06,21,01,39,10.60
2015,06,21,01,40,10.60
2015,06,21,01,41,10.60
2015,06,21,01,42,10.60
2015,06,21,01,43,10.50
2015,06,21,01,44,10.50
2015,06,21,01,45,10.50
2015,06,21,01,46,10.40
2015,06,21,01,47,10.40
2015,06,21,01,48,10.40
2015,06,21,01,49,10.40
2015,06,21,01,50,10.40
2015,06,21,01,51,10.40
2015,06,21,01,52,10.40
2015,06,21,01,53,10.40
2015,06,21,01,54,10.30
2015,06,21,01,55,10.30
2015,06,21,01,56,10.30
2015,06,21,01,57,10.30
2015,06,21,01,58,10.30
2015,06,21,01,59,10.30
2015,06,21,02,00,10.30
2015,06,21,02,01,10.20
2015,06,21,02,02,10.20
2015,06,21,02,03,10.20
2015,06,21,02,04,10.20
2015,06,21,02,05,10.20
2015,06,21,02,06,10.20
2015,06,21,02,07,10.20
2015,06,21,02,08,10.20
2015,06,21,02,09,10.20
2015,06,21,02,10,10.10
2015,06,21,02,11,10.10
2015,06,21,02,12,10.10
2015,06,21,02,13,10.10
2015,06,21,02,14,10.10
2015,06,21,02,15,10.10
2015,06,21,02,16,10.00
2015,06,21,02,17,10.00
2015,06,21,02,18,10.00
2015,06,21,02,19,9.90
2015,06,21,02,20,9.90
2015,06,21,02,21,9.90
2015,06,21,02,22,9.90
2015,06,21,02,23,9.90
2015,06,21,02,24,9.90
2015,06,21,02,25,9.80
2015,06,21,02,26,9.80
2015,06,21,02,27,9.80
2015,06,21,02,28,9.80
2015,06,21,02,29,9.80
2015,06,21,02,30,9.80
2015,06,21,02,31,9.80
2015,06,21,02,32,9.70
2015,06,21,02,33,9.70
2015,06,21,02,34,9.70
2015,06,21,02,35,9.70
2015,06,21,02,36,9.70
2015,06,21,02,37,9.70
2015,06,21,02,38,9.70
2015,06,21,02,39,9.70
2015,06,21,02,40,9.60
2015,06,21,02,41,9.60
2015,06,21,02,42,9.60
2015,06,21,02,43,9.60
2015,06,21,02,44,9.60
2015,06,21,02,45,9.60
2015,06,21,02,46,9.60
2015,06,21,02,47,9.60
2015,06,21,02,48,9.60
2015,06,21,02,49,9.60
2015,06,21,02,50,9.60
2015,06,21,02,51,9.60
2015,06,21,02,52,9.60
2015,06,21,02,53,9.60
2015,06,21,02,54,9.60
2015,06,21,02,55,9.60
2015,06,21,02,56,9.60
2015,06,21,02,57,9.60
2015,06,21,02,58,9.60
2015,06,21,02,59,9.60
2015,06,21,03,00,9.60
2015,06,21,03,01,9.50
2015,06,21,03,02,9.50
2015,06,21,03,06,9.40
2015,06,21,03,07,9.40
2015,06,21,03,08,9.40
2015,06,21,03,09,9.40
2015,06,21,03,10,9.40
2015,06,21,03,11,9.40
2015,06,21,03,12,9.40
2015,06,21,03,13,9.40
2015,06,21,03,14,9.40
2015,06,21,03,15,9.40
2015,06,21,03,16,9.40
2015,06,21,03,17,9.40
2015,06,21,03,18,9.40
2015,06,21,03,19,9.50
2015,06,21,03,20,9.40
2015,06,21,03,21,9.40
2015,06,21,03,22,9.40
2015,06,21,03,23,9.40
2015,06,21,03,24,9.40
2015,06,21,03,25,9.40
2015,06,21,03,26,9.40
2015,06,21,03,27,9.40
2015,06,21,03,28,9.40
2015,06,21,03,29,9.40
2015,06,21,03,30,9.40
2015,06,21,03,31,9.40
2015,06,21,03,32,9.40
2015,06,21,03,33,9.40
2015,06,21,03,34,9.30
2015,06,21,03,35,9.30
2015,06,21,03,36,9.30
2015,06,21,03,37,9.30
2015,06,21,03,38,9.30
2015,06,21,03,39,9.30
2015,06,21,03,40,9.30
2015,06,21,03,41,9.30
2015,06,21,03,42,9.30
2015,06,21,03,43,9.30
2015,06,21,03,44,9.30
2015,06,21,03,45,9.30
2015,06,21,03,46,9.30
2015,06,21,03,47,9.30
2015,06,21,03,48,9.30
2015,06,21,03,49,9.20
2015,06,21,03,50,9.20
2015,06,21,03,51,9.20
2015,06,21,03,52,9.20
2015,06,21,03,53,9.20
2015,06,21,03,54,9.20
2015,06,21,03,55,9.20
2015,06,21,03,56,9.20
2015,06,21,03,57,9.20
2015,06,21,03,58,9.20
2015,06,21,03,59,9.20
2015,06,21,04,00,9.20
2015,06,21,04,01,9.10
2015,06,21,04,02,9.10
2015,06,21,04,03,9.10
2015,06,21,04,04,9.10
2015,06,21,04,05,9.10
2015,06,21,04,06,9.10
2015,06,21,04,07,9.10
2015,06,21,04,08,9.10
2015,06,21,04,09,9.10
2015,06,21,04,10,9.10
2015,06,21,04,11,9.10
2015,06,21,04,12,9.10
2015,06,21,04,13,9.00
2015,06,21,04,14,9.00
2015,06,21,04,15,9.00
2015,06,21,04,16,9.00
2015,06,21,04,17,9.00
2015,06,21,04,18,8.90
2015,06,21,04,19,8.90
2015,06,21,04,20,8.90
2015,06,21,04,21,8.90
2015,06,21,04,22,8.90
2015,06,21,04,23,8.90
2015,06,21,04,24,8.90
2015,06,21,04,25,8.90
2015,06,21,04,26,8.90
2015,06,21,04,27,8.90
2015,06,21,04,28,8.90
2015,06,21,04,29,8.90
2015,06,21,04,30,8.80
2015,06,21,04,31,8.80
2015,06,21,04,32,8.80
2015,06,21,04,33,8.80
2015,06,21,04,34,8.80
2015,06,21,04,35,8.80
2015,06,21,04,36,8.80
2015,06,21,04,37,8.80
2015,06,21,04,38,8.80
2015,06,21,04,39,8.80
2015,06,21,04,40,8.80
2015,06,21,04,41,8.80
2015,06,21,04,42,8.70
2015,06,21,04,43,8.70
2015,06,21,04,44,8.70
2015,06,21,04,45,8.70
2015,06,21,04,46,8.70
2015,06,21,04,47,8.70
2015,06,21,04,48,8.70
2015,06,21,04,49,8.70
2015,06,21,04,50,8.70
2015,06,21,04,51,8.70
2015,06,21,04,52,8.70
2015,06,21,04,53,8.70
2015,06,21,04,54,8.70
2015,06,21,04,55,8.70
2015,06,21,04,56,8.70
2015,06,21,04,57,8.70
2015,06,21,04,58,8.60
2015,06,21,04,59,8.60
2015,06,21,05,00,8.60
2015,06,21,05,01,8.60
2015,06,21,05,02,8.60
2015,06,21,05,03,8.60
2015,06,21,05,04,8.60
2015,06,21,05,05,8.60
2015,06,21,05,06,8.60
2015,06,21,05,07,8.60
2015,06,21,05,08,8.60
2015,06,21,05,09,8.60
2015,06,21,05,10,8.60
2015,06,21,05,11,8.60
2015,06,21,05,12,8.60
2015,06,21,05,13,8.50
2015,06,21,05,14,8.50
2015,06,21,05,15,8.50
2015,06,21,05,16,8.50
2015,06,21,05,17,8.50
2015,06,21,05,18,8.50
2015,06,21,05,19,8.50
2015,06,21,05,20,8.50
2015,06,21,05,21,8.50
2015,06,21,05,22,8.50
2015,06,21,05,23,8.40
2015,06,21,05,24,8.40
2015,06,21,05,25,8.40
2015,06,21,05,26,8.50
2015,06,21,05,27,8.50
2015,06,21,05,28,8.40
2015,06,21,05,29,8.40
2015,06,21,05,30,8.40
2015,06,21,05,31,8.40
2015,06,21,05,32,8.40
2015,06,21,05,33,8.40
2015,06,21,05,34,8.40
2015,06,21,05,35,8.40
2015,06,21,05,36,8.40
2015,06,21,05,37,8.40
2015,06,21,05,38,8.50
2015,06,21,05,39,8.50
2015,06,21,05,40,8.50
2015,06,21,05,41,8.50
2015,06,21,05,42,8.50
2015,06,21,05,43,8.50
2015,06,21,05,44,8.50
2015,06,21,05,45,8.50
2015,06,21,05,46,8.50
2015,06,21,05,47,8.50
2015,06,21,05,48,8.50
2015,06,21,05,49,8.50
2015,06,21,05,50,8.50
2015,06,21,05,51,8.50
2015,06,21,05,52,8.50
2015,06,21,05,53,8.50
2015,06,21,05,54,8.50
2015,06,21,05,55,8.50
2015,06,21,05,56,8.50
2015,06,21,05,57,8.50
2015,06,21,05,58,8.50
2015,06,21,05,59,8.50
2015,06,21,06,00,8.50
2015,06,21,06,01,8.50
2015,06,21,06,02,8.50
2015,06,21,06,03,8.50
2015,06,21,06,04,8.50
2015,06,21,06,05,8.50
2015,06,21,06,06,8.50
2015,06,21,06,07,8.50
2015,06,21,06,08,8.60
2015,06,21,06,09,8.60
2015,06,21,06,10,8.60
2015,06,21,06,11,8.60
2015,06,21,06,12,8.60
2015,06,21,06,13,8.60
2015,06,21,06,14,8.60
2015,06,21,06,15,8.60
2015,06,21,06,16,8.60
2015,06,21,06,17,8.60
2015,06,21,06,18,8.60
2015,06,21,06,19,8.60
2015,06,21,06,20,8.60
2015,06,21,06,21,8.60
2015,06,21,06,22,8.70
2015,06,21,06,23,8.70
2015,06,21,06,24,8.70
2015,06,21,06,25,8.70
2015,06,21,06,26,8.70
2015,06,21,06,27,8.70
2015,06,21,06,28,8.80
2015,06,21,06,29,8.80
2015,06,21,06,30,8.80
2015,06,21,06,31,8.80
2015,06,21,06,32,8.90
2015,06,21,06,33,8.90
2015,06,21,06,34,8.90
2015,06,21,06,35,9.00
2015,06,21,06,36,9.00
2015,06,21,06,37,9.00
2015,06,21,06,38,9.10
2015,06,21,06,39,9.10
2015,06,21,06,40,9.10
2015,06,21,06,41,9.20
2015,06,21,06,42,9.20
2015,06,21,06,43,9.20
2015,06,21,06,44,9.30
2015,06,21,06,45,9.30
2015,06,21,06,46,9.30
2015,06,21,06,47,9.40
2015,06,21,06,48,9.40
2015,06,21,06,49,9.40
2015,06,21,06,50,9.50
2015,06,21,06,51,9.50
2015,06,21,06,52,9.50
2015,06,21,06,53,9.60
2015,06,21,06,54,9.60
2015,06,21,06,55,9.60
2015,06,21,06,56,9.60
2015,06,21,06,57,9.60
2015,06,21,06,58,9.60
2015,06,21,06,59,9.70
2015,06,21,07,00,9.70
2015,06,21,07,01,9.70
2015,06,21,07,02,9.70
2015,06,21,07,03,9.70
2015,06,21,07,04,9.80
2015,06,21,07,05,9.80
2015,06,21,07,06,9.80
2015,06,21,07,07,9.80
2015,06,21,07,08,9.90
2015,06,21,07,09,9.90
2015,06,21,07,10,9.90
2015,06,21,07,11,10.00
2015,06,21,07,12,10.10
2015,06,21,07,13,10.10
2015,06,21,07,14,10.20
2015,06,21,07,15,10.20
2015,06,21,07,16,10.30
2015,06,21,07,17,10.40
2015,06,21,07,18,10.40
2015,06,21,07,19,10.50
2015,06,21,07,20,10.60
2015,06,21,07,21,10.70
2015,06,21,07,22,10.70
2015,06,21,07,23,10.80
2015,06,21,07,24,10.80
2015,06,21,07,25,10.90
2015,06,21,07,26,10.90
2015,06,21,07,27,11.00
2015,06,21,07,28,11.00
2015,06,21,07,29,11.00
2015,06,21,07,30,11.10
2015,06,21,07,31,11.10
2015,06,21,07,32,11.10
2015,06,21,07,33,11.10
2015,06,21,07,34,11.20
2015,06,21,07,35,11.20
2015,06,21,07,36,11.20
2015,06,21,07,37,11.20
2015,06,21,07,38,11.30
2015,06,21,07,39,11.30
2015,06,21,07,40,11.30
2015,06,21,07,41,11.30
2015,06,21,07,42,11.40
2015,06,21,07,43,11.40
2015,06,21,07,44,11.40
2015,06,21,07,45,11.50
2015,06,21,07,46,11.50
2015,06,21,07,47,11.60
2015,06,21,07,48,11.60
2015,06,21,07,49,11.70
2015,06,21,07,50,11.80
2015,06,21,07,51,11.80
2015,06,21,07,52,11.90
2015,06,21,07,53,12.00
2015,06,21,07,54,12.10
2015,06,21,07,55,12.20
2015,06,21,07,56,12.30
2015,06,21,07,57,12.40
2015,06,21,07,58,12.50
2015,06,21,07,59,12.60
2015,06,21,08,00,12.60
2015,06,21,08,01,12.70
2015,06,21,08,02,12.80
2015,06,21,08,03,12.80
2015,06,21,08,04,12.80
2015,06,21,08,05,12.90
2015,06,21,08,06,13.00
2015,06,21,08,07,13.00
2015,06,21,08,08,13.10
2015,06,21,08,09,13.10
2015,06,21,08,10,13.20
2015,06,21,08,11,13.30
2015,06,21,08,12,13.40
2015,06,21,08,13,13.50
2015,06,21,08,14,13.60
2015,06,21,08,15,13.70
2015,06,21,08,16,13.80
2015,06,21,08,17,13.90
2015,06,21,08,18,14.00
2015,06,21,08,19,14.10
2015,06,21,08,20,14.30
2015,06,21,08,21,14.40
2015,06,21,08,22,14.50
2015,06,21,08,23,14.70
2015,06,21,08,24,14.80
2015,06,21,08,25,14.90
2015,06,21,08,26,15.00
2015,06,21,08,27,15.00
2015,06,21,08,28,15.00
2015,06,21,08,29,15.20
2015,06,21,08,30,15.30
2015,06,21,08,31,15.40
2015,06,21,08,32,15.50
2015,06,21,08,33,15.60
2015,06,21,08,34,15.70
2015,06,21,08,35,15.70
2015,06,21,08,36,15.80
2015,06,21,08,37,15.80
2015,06,21,08,38,15.80
2015,06,21,08,39,15.90
2015,06,21,08,40,15.90
2015,06,21,08,41,15.90
2015,06,21,08,42,16.00
2015,06,21,08,43,16.00
2015,06,21,08,44,16.10
2015,06,21,08,45,16.20
2015,06,21,08,46,16.30
2015,06,21,08,47,16.30
2015,06,21,08,48,16.40
2015,06,21,08,49,16.40
2015,06,21,08,50,16.40
2015,06,21,08,51,16.40
2015,06,21,08,52,16.50
2015,06,21,08,53,16.50
2015,06,21,08,54,16.60
2015,06,21,08,55,16.60
2015,06,21,08,56,16.60
2015,06,21,08,57,16.60
2015,06,21,08,58,16.70
2015,06,21,08,59,16.70
2015,06,21,09,00,16.70
2015,06,21,09,01,16.80
2015,06,21,09,02,16.80
2015,06,21,09,03,16.80
2015,06,21,09,04,16.90
2015,06,21,09,05,16.90
2015,06,21,09,06,17.00
2015,06,21,09,07,17.00
2015,06,21,09,08,17.10
2015,06,21,09,09,17.20
2015,06,21,09,10,17.20
2015,06,21,09,11,17.30
2015,06,21,09,12,17.40
2015,06,21,09,13,17.50
2015,06,21,09,14,17.60
2015,06,21,09,15,17.60
2015,06,21,09,16,17.70
2015,06,21,09,17,17.80
2015,06,21,09,18,17.90
2015,06,21,09,19,18.00
2015,06,21,09,20,18.00
2015,06,21,09,21,18.10
2015,06,21,09,22,18.20
2015,06,21,09,23,18.20
2015,06,21,09,24,18.20
2015,06,21,09,25,18.30
2015,06,21,09,26,18.30
2015,06,21,09,27,18.30
2015,06,21,09,28,18.30
2015,06,21,09,29,18.30
2015,06,21,09,30,18.30
2015,06,21,09,31,18.30
2015,06,21,09,32,18.30
2015,06,21,09,33,18.30
2015,06,21,09,34,18.30
2015,06,21,09,35,18.30
2015,06,21,09,36,18.30
2015,06,21,09,37,18.30
2015,06,21,09,38,18.30
2015,06,21,09,39,18.30
2015,06,21,09,40,18.30
2015,06,21,09,41,18.30
2015,06,21,09,42,18.30
2015,06,21,09,43,18.20
2015,06,21,09,44,18.20
2015,06,21,09,45,18.20
2015,06,21,09,46,18.10
2015,06,21,09,47,18.10
2015,06,21,09,48,18.10
2015,06,21,09,49,18.20
2015,06,21,09,50,18.20
2015,06,21,09,51,18.20
2015,06,21,09,52,18.30
2015,06,21,09,53,18.30
2015,06,21,09,54,18.30
2015,06,21,09,55,18.30
2015,06,21,09,56,18.40
2015,06,21,09,57,18.40
2015,06,21,09,58,18.50
2015,06,21,09,59,18.50
2015,06,21,10,00,18.60
2015,06,21,10,01,18.60
2015,06,21,10,02,18.70
2015,06,21,10,03,18.70
2015,06,21,10,04,18.70
2015,06,21,10,05,18.70
2015,06,21,10,06,18.70
2015,06,21,10,07,18.70
2015,06,21,10,08,18.70
2015,06,21,10,09,18.70
2015,06,21,10,10,18.70
2015,06,21,10,11,18.70
2015,06,21,10,12,18.70
2015,06,21,10,13,18.70
2015,06,21,10,14,18.80
2015,06,21,10,15,18.80
2015,06,21,10,16,18.80
2015,06,21,10,17,18.80
2015,06,21,10,18,18.90
2015,06,21,10,19,18.90
2015,06,21,10,20,19.00
2015,06,21,10,21,19.10
2015,06,21,10,22,19.10
2015,06,21,10,23,19.20
2015,06,21,10,24,19.20
2015,06,21,10,25,19.30
2015,06,21,10,26,19.30
2015,06,21,10,27,19.40
2015,06,21,10,28,19.40
2015,06,21,10,29,19.50
2015,06,21,10,30,19.50
2015,06,21,10,31,19.60
2015,06,21,10,32,19.50
2015,06,21,10,33,19.50
2015,06,21,10,34,19.50
2015,06,21,10,35,19.50
2015,06,21,10,36,19.50
2015,06,21,10,37,19.60
2015,06,21,10,38,19.60
2015,06,21,10,39,19.60
2015,06,21,10,40,19.60
2015,06,21,10,41,19.60
2015,06,21,10,42,19.60
2015,06,21,10,43,19.60
2015,06,21,10,44,19.60
2015,06,21,10,45,19.60
2015,06,21,10,46,19.70
2015,06,21,10,47,19.70
2015,06,21,10,48,19.70
2015,06,21,10,49,19.70
2015,06,21,10,50,19.70
2015,06,21,10,51,19.70
2015,06,21,10,52,19.70
2015,06,21,10,53,19.80
2015,06,21,10,54,19.80
2015,06,21,10,55,19.80
2015,06,21,10,56,19.90
2015,06,21,10,57,20.00
2015,06,21,10,58,20.00
2015,06,21,10,59,20.10
2015,06,21,11,00,20.20
2015,06,21,11,01,20.20
2015,06,21,11,02,20.30
2015,06,21,11,03,20.30
2015,06,21,11,04,20.40
2015,06,21,11,05,20.40
2015,06,21,11,06,20.40
2015,06,21,11,07,20.40
2015,06,21,11,08,20.50
2015,06,21,11,09,20.50
2015,06,21,11,10,20.50
2015,06,21,11,11,20.50
2015,06,21,11,12,20.50
2015,06,21,11,13,20.60
2015,06,21,11,14,20.60
2015,06,21,11,15,20.70
2015,06,21,11,16,20.70
2015,06,21,11,17,20.80
2015,06,21,11,18,20.80
2015,06,21,11,19,20.80
2015,06,21,11,20,20.90
2015,06,21,11,21,20.90
2015,06,21,11,22,21.00
2015,06,21,11,23,21.00
2015,06,21,11,24,21.00
2015,06,21,11,25,21.00
2015,06,21,11,26,21.00
2015,06,21,11,27,21.00
2015,06,21,11,28,21.00
2015,06,21,11,29,21.00
2015,06,21,11,30,21.10
2015,06,21,11,31,21.10
2015,06,21,11,32,21.20
2015,06,21,11,33,21.30
2015,06,21,11,34,21.30
2015,06,21,11,35,21.30
2015,06,21,11,36,21.30
2015,06,21,11,37,21.30
2015,06,21,11,38,21.30
2015,06,21,11,39,21.30
2015,06,21,11,40,21.30
2015,06,21,11,41,21.20
2015,06,21,11,42,21.20
2015,06,21,11,43,21.20
2015,06,21,11,44,21.30
2015,06,21,11,45,21.30
2015,06,21,11,46,21.30
2015,06,21,11,47,21.40
2015,06,21,11,48,21.40
2015,06,21,11,49,21.40
2015,06,21,11,50,21.40
2015,06,21,11,51,21.30
2015,06,21,11,52,21.30
2015,06,21,11,53,21.30
2015,06,21,11,54,21.30
2015,06,21,11,55,21.30
2015,06,21,11,56,21.30
2015,06,21,11,57,21.20
2015,06,21,11,58,21.20
2015,06,21,11,59,21.20
2015,06,21,12,00,21.10
2015,06,21,12,01,21.20
2015,06,21,12,02,21.20
2015,06,21,12,03,21.30
2015,06,21,12,04,21.30
2015,06,21,12,05,21.40
2015,06,21,12,06,21.50
2015,06,21,12,07,21.60
2015,06,21,12,08,21.70
2015,06,21,12,09,21.70
2015,06,21,12,10,21.70
2015,06,21,12,11,21.70
2015,06,21,12,12,21.70
2015,06,21,12,13,21.70
2015,06,21,12,14,21.80
2015,06,21,12,15,21.80
2015,06,21,12,16,21.80
2015,06,21,12,17,21.90
2015,06,21,12,18,21.90
2015,06,21,12,19,21.90
2015,06,21,12,20,21.90
2015,06,21,12,21,22.00
2015,06,21,12,22,22.00
2015,06,21,12,23,22.10
2015,06,21,12,24,22.00
2015,06,21,12,25,22.00
2015,06,21,12,26,21.90
2015,06,21,12,27,21.90
2015,06,21,12,28,21.80
2015,06,21,12,29,21.80
2015,06,21,12,30,21.80
2015,06,21,12,31,21.80
2015,06,21,12,32,21.90
2015,06,21,12,33,22.00
2015,06,21,12,34,22.20
2015,06,21,12,35,22.20
2015,06,21,12,36,22.30
2015,06,21,12,37,22.30
2015,06,21,12,38,22.40
2015,06,21,12,39,22.50
2015,06,21,12,40,22.60
2015,06,21,12,41,22.60
2015,06,21,12,42,22.70
2015,06,21,12,43,22.80
2015,06,21,12,44,22.80
2015,06,21,12,45,22.90
2015,06,21,12,46,22.80
2015,06,21,12,47,22.80
2015,06,21,12,48,22.80
2015,06,21,12,49,22.80
2015,06,21,12,50,22.80
2015,06,21,12,51,22.80
2015,06,21,12,52,22.80
2015,06,21,12,53,22.90
2015,06,21,12,54,23.00
2015,06,21,12,55,23.10
2015,06,21,12,56,23.20
2015,06,21,12,57,23.20
2015,06,21,12,58,23.20
2015,06,21,12,59,23.20
2015,06,21,13,00,23.20
2015,06,21,13,01,23.20
2015,06,21,13,02,23.30
2015,06,21,13,03,23.30
2015,06,21,13,04,23.30
2015,06,21,13,05,23.30
2015,06,21,13,06,23.30
2015,06,21,13,07,23.30
2015,06,21,13,08,23.30
2015,06,21,13,09,23.20
2015,06,21,13,10,23.20
2015,06,21,13,11,23.10
2015,06,21,13,12,23.00
2015,06,21,13,13,22.90
2015,06,21,13,14,22.90
2015,06,21,13,15,22.80
2015,06,21,13,16,22.80
2015,06,21,13,17,22.80
2015,06,21,13,18,22.80
2015,06,21,13,19,22.80
2015,06,21,13,20,22.80
2015,06,21,13,21,22.80
2015,06,21,13,22,22.80
2015,06,21,13,23,22.80
2015,06,21,13,24,22.80
2015,06,21,13,25,22.80
2015,06,21,13,26,22.80
2015,06,21,13,27,22.90
2015,06,21,13,28,22.90
2015,06,21,13,29,23.00
2015,06,21,13,30,23.10
2015,06,21,13,31,23.20
2015,06,21,13,32,23.30
2015,06,21,13,33,23.40
2015,06,21,13,34,23.50
2015,06,21,13,35,23.50
2015,06,21,13,36,23.60
2015,06,21,13,37,23.60
2015,06,21,13,38,23.70
2015,06,21,13,39,23.70
2015,06,21,13,40,23.70
2015,06,21,13,41,23.70
2015,06,21,13,42,23.70
2015,06,21,13,43,23.70
2015,06,21,13,44,23.60
2015,06,21,13,45,23.60
2015,06,21,13,46,23.60
2015,06,21,13,47,23.70
2015,06,21,13,48,23.80
2015,06,21,13,49,23.80
2015,06,21,13,50,23.80
2015,06,21,13,51,23.80
2015,06,21,13,52,23.90
2015,06,21,13,53,23.80
2015,06,21,13,54,23.80
2015,06,21,13,55,23.90
2015,06,21,13,56,24.00
2015,06,21,13,57,24.00
2015,06,21,13,58,24.10
2015,06,21,13,59,24.10
2015,06,21,14,00,24.20
2015,06,21,14,01,24.30
2015,06,21,14,02,24.30
2015,06,21,14,03,24.40
2015,06,21,14,04,24.20
2015,06,21,14,05,24.10
2015,06,21,14,06,24.00
2015,06,21,14,07,23.90
2015,06,21,14,08,23.90
2015,06,21,14,09,23.80
2015,06,21,14,10,23.90
2015,06,21,14,11,23.90
2015,06,21,14,12,24.00
2015,06,21,14,13,24.10
2015,06,21,14,14,24.30
2015,06,21,14,15,24.40
2015,06,21,14,16,24.40
2015,06,21,14,17,24.50
2015,06,21,14,18,24.60
2015,06,21,14,19,24.60
2015,06,21,14,20,24.70
2015,06,21,14,21,24.70
2015,06,21,14,22,24.80
2015,06,21,14,23,24.80
2015,06,21,14,24,24.90
2015,06,21,14,25,24.90
2015,06,21,14,26,24.90
2015,06,21,14,27,24.90
2015,06,21,14,28,24.90
2015,06,21,14,29,24.80
2015,06,21,14,30,24.80
2015,06,21,14,31,24.80
2015,06,21,14,32,24.80
2015,06,21,14,33,24.80
2015,06,21,14,34,24.80
2015,06,21,14,35,24.80
2015,06,21,14,36,24.80
2015,06,21,14,37,24.90
2015,06,21,14,38,24.90
2015,06,21,14,39,24.90
2015,06,21,14,40,25.00
2015,06,21,14,41,25.10
2015,06,21,14,42,25.10
2015,06,21,14,43,25.10
2015,06,21,14,44,25.20
2015,06,21,14,45,25.20
2015,06,21,14,46,25.30
2015,06,21,14,47,25.30
2015,06,21,14,48,25.30
2015,06,21,14,49,25.30
2015,06,21,14,50,25.30
2015,06,21,14,51,25.30
2015,06,21,14,52,25.30
2015,06,21,14,53,25.30
2015,06,21,14,54,25.30
2015,06,21,14,55,25.40
2015,06,21,14,56,25.40
2015,06,21,14,57,25.50
2015,06,21,14,58,25.60
2015,06,21,14,59,25.60
2015,06,21,15,00,25.50
2015,06,21,15,01,25.50
2015,06,21,15,02,25.40
2015,06,21,15,03,25.40
2015,06,21,15,04,25.30
2015,06,21,15,05,25.30
2015,06,21,15,06,25.20
2015,06,21,15,07,25.20
2015,06,21,15,08,25.20
2015,06,21,15,09,25.20
2015,06,21,15,10,25.20
2015,06,21,15,11,25.20
2015,06,21,15,12,25.30
2015,06,21,15,13,25.20
2015,06,21,15,14,25.20
2015,06,21,15,15,25.20
2015,06,21,15,16,25.20
2015,06,21,15,17,25.20
2015,06,21,15,18,25.10
2015,06,21,15,19,25.00
2015,06,21,15,20,24.90
2015,06,21,15,21,24.90
2015,06,21,15,22,24.90
2015,06,21,15,23,25.00
2015,06,21,15,24,25.00
2015,06,21,15,25,25.10
2015,06,21,15,26,25.20
2015,06,21,15,27,25.30
2015,06,21,15,28,25.30
2015,06,21,15,29,25.30
2015,06,21,15,30,25.30
2015,06,21,15,31,25.40
2015,06,21,15,32,25.40
2015,06,21,15,33,25.40
2015,06,21,15,34,25.40
2015,06,21,15,35,25.40
2015,06,21,15,36,25.40
2015,06,21,15,37,25.40
2015,06,21,15,38,25.40
2015,06,21,15,39,25.30
2015,06,21,15,40,25.40
2015,06,21,15,41,25.40
2015,06,21,15,42,25.40
2015,06,21,15,43,25.40
2015,06,21,15,44,25.40
2015,06,21,15,45,25.50
2015,06,21,15,46,25.50
2015,06,21,15,47,25.50
2015,06,21,15,48,25.60
2015,06,21,15,49,25.60
2015,06,21,15,50,25.70
2015,06,21,15,51,25.70
2015,06,21,15,52,25.70
2015,06,21,15,53,25.70
2015,06,21,15,54,25.70
2015,06,21,15,55,25.80
2015,06,21,15,56,25.80
2015,06,21,15,57,25.80
2015,06,21,15,58,25.80
2015,06,21,15,59,25.80
2015,06,21,16,00,25.80
2015,06,21,16,01,25.80
2015,06,21,16,02,25.80
2015,06,21,16,03,25.80
2015,06,21,16,04,25.80
2015,06,21,16,05,25.90
2015,06,21,16,06,25.90
2015,06,21,16,07,25.90
2015,06,21,16,08,25.90
2015,06,21,16,09,25.70
2015,06,21,16,10,25.60
2015,06,21,16,11,25.60
2015,06,21,16,12,25.50
2015,06,21,16,13,25.40
2015,06,21,16,14,25.40
2015,06,21,16,15,25.40
2015,06,21,16,16,25.40
2015,06,21,16,17,25.50
2015,06,21,16,18,25.50
2015,06,21,16,19,25.50
2015,06,21,16,20,25.50
2015,06,21,16,21,25.40
2015,06,21,16,22,25.40
2015,06,21,16,23,25.40
2015,06,21,16,24,25.40
2015,06,21,16,25,25.40
2015,06,21,16,26,25.30
2015,06,21,16,27,25.30
2015,06,21,16,28,25.30
2015,06,21,16,29,25.20
2015,06,21,16,30,25.20
2015,06,21,16,31,25.20
2015,06,21,16,32,25.20
2015,06,21,16,33,25.20
2015,06,21,16,34,25.30
2015,06,21,16,35,25.30
2015,06,21,16,36,25.30
2015,06,21,16,37,25.40
2015,06,21,16,38,25.40
2015,06,21,16,39,25.50
2015,06,21,16,40,25.50
2015,06,21,16,41,25.40
2015,06,21,16,42,25.40
2015,06,21,16,43,25.40
2015,06,21,16,44,25.40
2015,06,21,16,45,25.40
2015,06,21,16,46,25.50
2015,06,21,16,47,25.60
2015,06,21,16,48,25.60
2015,06,21,16,49,25.70
2015,06,21,16,50,25.80
2015,06,21,16,51,25.80
2015,06,21,16,52,25.70
2015,06,21,16,53,25.70
2015,06,21,16,54,25.80
2015,06,21,16,55,25.80
2015,06,21,16,56,25.90
2015,06,21,16,57,25.90
2015,06,21,16,58,25.90
2015,06,21,16,59,25.90
2015,06,21,17,00,25.80
2015,06,21,17,01,25.80
2015,06,21,17,02,25.80
2015,06,21,17,03,25.80
2015,06,21,17,04,25.80
2015,06,21,17,05,25.80
2015,06,21,17,06,25.80
2015,06,21,17,07,25.80
2015,06,21,17,08,25.80
2015,06,21,17,09,25.80
2015,06,21,17,10,25.70
2015,06,21,17,11,25.70
2015,06,21,17,12,25.60
2015,06,21,17,13,25.60
2015,06,21,17,14,25.60
2015,06,21,17,15,25.60
2015,06,21,17,16,25.60
2015,06,21,17,17,25.60
2015,06,21,17,18,25.60
2015,06,21,17,19,25.60
2015,06,21,17,20,25.60
2015,06,21,17,21,25.70
2015,06,21,17,22,25.70
2015,06,21,17,23,25.70
2015,06,21,17,24,25.70
2015,06,21,17,25,25.70
2015,06,21,17,26,25.70
2015,06,21,17,27,25.70
2015,06,21,17,28,25.70
2015,06,21,17,29,25.80
2015,06,21,17,30,25.80
2015,06,21,17,31,25.80
2015,06,21,17,32,25.80
2015,06,21,17,33,25.70
2015,06,21,17,34,25.70
2015,06,21,17,35,25.70